Hourly Data Report for September 16, 2016

All times are specified in Local Standard Time (LST). Add 1 hour to adjust for Daylight Saving Time where and when it is observed.

CHARLOTTETOWN A
PRINCE EDWARD ISLAND

46°17'21.000" N
63°07'09.000" W
48.50 m
8300301
71706
YYG

Download Data

Hourly Data (September 2016)
Hourly Data Report for September 16, 2016
Temp Definition
°C
Dew Point Temp Definition
°C
Rel Hum Definition
%
Wind Dir Definition
10's deg

Wind Spd Definition
km/h
Visibility Definition
km
Stn Press Definition
kPa
Hmdx Definition


Wind Chill Definition


Weather Definition


TIME
00:00 Legend Double Dagger 8.3 5.1 80 25 10 24.1 101.89     LegendNANA
01:00 Legend Double Dagger 8.8 4.5 74 25 8 24.1 101.90     LegendNANA
02:00 Legend Double Dagger 5.2 3.5 89 24 6 24.1 101.88     Mainly Clear
03:00 Legend Double Dagger 8.8 6.3 84 25 7 24.1 101.92     LegendNANA
04:00 Legend Double Dagger 9.2 6.7 84 26 10 24.1 101.91     LegendNANA
05:00 Legend Double Dagger 9.3 6.9 85 25 8 24.1 101.90     Mainly Clear
06:00 Legend Double Dagger 8.6 6.9 89 23 9 24.1 101.92     LegendNANA
07:00 Legend Double Dagger 10.7 8.3 85 26 13 24.1 101.94     LegendNANA
08:00 Legend Double Dagger 12.5 9.4 81 24 11 24.1 101.97     Mainly Clear
09:00 Legend Double Dagger 14.3 8.7 69 24 16 24.1 102.04     LegendNANA
10:00 Legend Double Dagger 15.8 9.3 65 25 14 24.1 102.05     LegendNANA
11:00 Legend Double Dagger 16.9 7.6 54 25 20 24.1 102.04     Mainly Clear
12:00 Legend Double Dagger 17.6 7.5 51 25 18 24.1 102.00     LegendNANA
13:00 Legend Double Dagger 17.9 6.9 48 26 19 24.1 101.96     LegendNANA
14:00 Legend Double Dagger 18.1 7.3 49 24 23 24.1 101.91     Mainly Clear
15:00 Legend Double Dagger 18.5 7.4 48 24 18 24.1 101.85     LegendNANA
16:00 Legend Double Dagger 18.6 7.2 47 23 19 24.1 101.81     LegendNANA
17:00 Legend Double Dagger 18.3 7.5 49 24 13 24.1 101.77     Mainly Clear
18:00 Legend Double Dagger 17.1 8.4 56 22 12 24.1 101.77     LegendNANA
19:00 Legend Double Dagger 15.2 8.7 65 23 9 24.1 101.80     LegendNANA
20:00 Legend Double Dagger 14.2 8.4 68 23 9 24.1 101.80     Mostly Cloudy
21:00 Legend Double Dagger 14.3 8.1 66 23 13 24.1 101.82     LegendNANA
22:00 Legend Double Dagger 14.0 8.7 70 22 16 24.1 101.87     LegendNANA
23:00 Legend Double Dagger 13.6 10.1 79 22 17 24.1 101.86     Mostly Cloudy

Notes on Data Quality.

Legend

  • E = Estimated
  • M = Missing
  • NA = Not Available
  • ‡ = Partner data that is not subject to review by the National Climate Archives
Date modified: